owner,sensor,date,latitude,longitude,air_pressure(mBar),qcFlag 
LUMCON,ioos:station:LUMCON:103:1,2008-02-01T14:00:00Z,30.1889,-90.1683,1015.8,11111222 
LUMCON,ioos:station:LUMCON:103:1,2008-02-01T15:00:00Z,30.1889,-90.1683,1016.1,11111222 
LUMCON,ioos:station:LUMCON:103:1,2008-02-01T16:00:00Z,30.1889,-90.1683,1016.5,11111222 
LUMCON,ioos:station:LUMCON:103:1,2008-02-01T17:00:00Z,30.1889,-90.1683,1016.5,11111222 
LUMCON,ioos:station:LUMCON:103:1,2008-02-01T18:00:00Z,30.1889,-90.1683,1016.1,11111222 
LUMCON,ioos:station:LUMCON:103:1,2008-02-01T19:00:00Z,30.1889,-90.1683,1015.8,11111222 
LUMCON,ioos:station:LUMCON:103:1,2008-02-01T20:00:00Z,30.1889,-90.1683,1015.5,11111222 
LUMCON,ioos:station:LUMCON:103:1,2008-02-01T21:00:00Z,30.1889,-90.1683,1015.3,11111222 
LUMCON,ioos:station:LUMCON:103:1,2008-02-01T22:00:00Z,30.1889,-90.1683,1015.2,11111222 
LUMCON,ioos:station:LUMCON:103:1,2008-02-01T23:00:00Z,30.1889,-90.1683,1015.2,11111222 
LUMCON,ioos:station:LUMCON:103:1,2008-02-02T00:00:00Z,30.1889,-90.1683,1015.4,11111222 
LUMCON,ioos:station:LUMCON:103:1,2008-02-02T01:00:00Z,30.1889,-90.1683,1016.1,11111222 
LUMCON,ioos:station:LUMCON:103:1,2008-02-02T02:00:00Z,30.1889,-90.1683,1015.4,11111222 
LUMCON,ioos:station:LUMCON:103:1,2008-02-02T03:00:00Z,30.1889,-90.1683,1015.7,11111222 
LUMCON,ioos:station:LUMCON:103:1,2008-02-06T15:00:00Z,30.1889,-90.1683,1013.6,11111222 
LUMCON,ioos:station:LUMCON:103:1,2008-02-06T16:00:00Z,30.1889,-90.1683,1015.2,11111222 
LUMCON,ioos:station:LUMCON:103:1,2008-02-06T17:00:00Z,30.1889,-90.1683,1015.3,11111222 
LUMCON,ioos:station:LUMCON:103:1,2008-02-06T18:00:00Z,30.1889,-90.1683,1015.0,11111222 
LUMCON,ioos:station:LUMCON:103:1,2008-02-06T20:00:00Z,30.1889,-90.1683,1014.1,11111222 
LUMCON,ioos:station:LUMCON:103:1,2008-02-06T21:00:00Z,30.1889,-90.1683,1014.1,11111222 
LUMCON,ioos:station:LUMCON:103:1,2008-02-06T22:00:00Z,30.1889,-90.1683,1014.1,11111222 
LUMCON,ioos:station:LUMCON:103:1,2008-02-06T23:00:00Z,30.1889,-90.1683,1014.4,11111222 
LUMCON,ioos:station:LUMCON:103:1,2008-02-07T00:00:00Z,30.1889,-90.1683,1014.9,11111222 
LUMCON,ioos:station:LUMCON:103:1,2008-02-07T01:00:00Z,30.1889,-90.1683,1015.3,11111222 
LUMCON,ioos:station:LUMCON:103:1,2008-02-07T16:00:00Z,30.1889,-90.1683,1019.9,11111222 
LUMCON,ioos:station:LUMCON:103:1,2008-02-07T21:00:00Z,30.1889,-90.1683,1016.0,11111222 
LUMCON,ioos:station:LUMCON:103:1,2008-02-08T00:00:00Z,30.1889,-90.1683,1015.5,11111222 
LUMCON,ioos:station:LUMCON:103:1,2008-02-08T15:00:00Z,30.1889,-90.1683,1017.9,11111222 
LUMCON,ioos:station:LUMCON:103:1,2008-02-12T20:00:00Z,30.1889,-90.1683,1007.7,11111222 
LUMCON,ioos:station:LUMCON:103:1,2008-02-12T21:00:00Z,30.1889,-90.1683,1008.9,11111222 
LUMCON,ioos:station:LUMCON:103:1,2008-02-12T22:00:00Z,30.1889,-90.1683,1010.8,11111222 
LUMCON,ioos:station:LUMCON:103:1,2008-02-12T23:00:00Z,30.1889,-90.1683,1010.3,11111222 
LUMCON,ioos:station:LUMCON:103:1,2008-02-13T00:00:00Z,30.1889,-90.1683,1010.6,11111222 
LUMCON,ioos:station:LUMCON:103:1,2008-02-13T01:00:00Z,30.1889,-90.1683,1009.9,11111222 
LUMCON,ioos:station:LUMCON:103:1,2008-02-13T02:00:00Z,30.1889,-90.1683,1009.8,11111222 
LUMCON,ioos:station:LUMCON:103:1,2008-02-13T03:00:00Z,30.1889,-90.1683,1009.7,11111222 
LUMCON,ioos:station:LUMCON:103:1,2008-02-13T04:00:00Z,30.1889,-90.1683,1010.0,11111222 
LUMCON,ioos:station:LUMCON:103:1,2008-02-13T05:00:00Z,30.1889,-90.1683,1010.3,11111222 
LUMCON,ioos:station:LUMCON:103:1,2008-02-13T06:00:00Z,30.1889,-90.1683,1010.6,11111222 
LUMCON,ioos:station:LUMCON:103:1,2008-02-13T07:00:00Z,30.1889,-90.1683,1011.0,11111222 
LUMCON,ioos:station:LUMCON:103:1,2008-02-13T08:00:00Z,30.1889,-90.1683,1012.0,11111222 
LUMCON,ioos:station:LUMCON:103:1,2008-02-13T09:00:00Z,30.1889,-90.1683,1012.7,11111222 
LUMCON,ioos:station:LUMCON:103:1,2008-02-13T10:00:00Z,30.1889,-90.1683,1012.9,11111222 
LUMCON,ioos:station:LUMCON:103:1,2008-02-13T11:00:00Z,30.1889,-90.1683,1013.7,11111222 
LUMCON,ioos:station:LUMCON:103:1,2008-02-13T12:00:00Z,30.1889,-90.1683,1014.3,11111222 
LUMCON,ioos:station:LUMCON:103:1,2008-02-13T13:00:00Z,30.1889,-90.1683,1015.4,11111222 
LUMCON,ioos:station:LUMCON:103:1,2008-02-13T14:00:00Z,30.1889,-90.1683,1016.5,11111222 
LUMCON,ioos:station:LUMCON:103:1,2008-02-13T15:00:00Z,30.1889,-90.1683,1017.3,11111222 
LUMCON,ioos:station:LUMCON:103:1,2008-02-13T16:00:00Z,30.1889,-90.1683,1018.1,11111222 
LUMCON,ioos:station:LUMCON:103:1,2008-02-13T17:00:00Z,30.1889,-90.1683,1017.9,11111222 
LUMCON,ioos:station:LUMCON:103:1,2008-02-13T18:00:00Z,30.1889,-90.1683,1017.6,11111222 
LUMCON,ioos:station:LUMCON:103:1,2008-02-13T19:00:00Z,30.1889,-90.1683,1017.1,11111222 
LUMCON,ioos:station:LUMCON:103:1,2008-02-13T20:00:00Z,30.1889,-90.1683,1016.6,11111222 
LUMCON,ioos:station:LUMCON:103:1,2008-02-13T21:00:00Z,30.1889,-90.1683,1016.5,11111222 
LUMCON,ioos:station:LUMCON:103:1,2008-02-13T22:00:00Z,30.1889,-90.1683,1016.8,11111222 
LUMCON,ioos:station:LUMCON:103:1,2008-02-13T23:00:00Z,30.1889,-90.1683,1017.2,11111222 
LUMCON,ioos:station:LUMCON:103:1,2008-02-14T00:00:00Z,30.1889,-90.1683,1017.8,11111222 
LUMCON,ioos:station:LUMCON:103:1,2008-02-14T01:00:00Z,30.1889,-90.1683,1018.8,11111222 
LUMCON,ioos:station:LUMCON:103:1,2008-02-14T02:00:00Z,30.1889,-90.1683,1019.7,11111222 
LUMCON,ioos:station:LUMCON:103:1,2008-02-14T03:00:00Z,30.1889,-90.1683,1020.0,11111222 
LUMCON,ioos:station:LUMCON:103:1,2008-02-14T04:00:00Z,30.1889,-90.1683,1020.2,11111222 
LUMCON,ioos:station:LUMCON:103:1,2008-02-14T05:00:00Z,30.1889,-90.1683,1020.2,11111222 
LUMCON,ioos:station:LUMCON:103:1,2008-02-14T06:00:00Z,30.1889,-90.1683,1020.0,11111222 
LUMCON,ioos:station:LUMCON:103:1,2008-02-14T07:00:00Z,30.1889,-90.1683,1020.0,11111222 
LUMCON,ioos:station:LUMCON:103:1,2008-02-14T08:00:00Z,30.1889,-90.1683,1020.0,11111222 
LUMCON,ioos:station:LUMCON:103:1,2008-02-14T09:00:00Z,30.1889,-90.1683,1019.9,11111222 
LUMCON,ioos:station:LUMCON:103:1,2008-02-14T10:00:00Z,30.1889,-90.1683,1019.9,11111222 
LUMCON,ioos:station:LUMCON:103:1,2008-02-14T11:00:00Z,30.1889,-90.1683,1020.8,11111222 
LUMCON,ioos:station:LUMCON:103:1,2008-02-14T12:00:00Z,30.1889,-90.1683,1021.7,11111222 
LUMCON,ioos:station:LUMCON:103:1,2008-02-14T13:00:00Z,30.1889,-90.1683,1022.3,11111222 
LUMCON,ioos:station:LUMCON:103:1,2008-02-14T14:00:00Z,30.1889,-90.1683,1022.8,11111222 
LUMCON,ioos:station:LUMCON:103:1,2008-02-14T15:00:00Z,30.1889,-90.1683,1023.5,11111222 
LUMCON,ioos:station:LUMCON:103:1,2008-02-14T16:00:00Z,30.1889,-90.1683,1024.4,11111222 
LUMCON,ioos:station:LUMCON:103:1,2008-02-14T17:00:00Z,30.1889,-90.1683,1024.4,11111222 
LUMCON,ioos:station:LUMCON:103:1,2008-02-14T18:00:00Z,30.1889,-90.1683,1023.4,11111222 
LUMCON,ioos:station:LUMCON:103:1,2008-02-14T19:00:00Z,30.1889,-90.1683,1022.3,11111222 
LUMCON,ioos:station:LUMCON:103:1,2008-02-14T20:00:00Z,30.1889,-90.1683,1021.5,11111222 
LUMCON,ioos:station:LUMCON:103:1,2008-02-14T21:00:00Z,30.1889,-90.1683,1021.4,11111222 
LUMCON,ioos:station:LUMCON:103:1,2008-02-14T22:00:00Z,30.1889,-90.1683,1021.2,11111222 
LUMCON,ioos:station:LUMCON:103:1,2008-02-14T23:00:00Z,30.1889,-90.1683,1021.0,11111222 
LUMCON,ioos:station:LUMCON:103:1,2008-02-15T00:00:00Z,30.1889,-90.1683,1021.0,11111222 
LUMCON,ioos:station:LUMCON:103:1,2008-02-15T01:00:00Z,30.1889,-90.1683,1020.9,11111222 
LUMCON,ioos:station:LUMCON:103:1,2008-02-15T02:00:00Z,30.1889,-90.1683,1021.2,11111222 
LUMCON,ioos:station:LUMCON:103:1,2008-02-15T03:00:00Z,30.1889,-90.1683,1021.5,11111222 
LUMCON,ioos:station:LUMCON:103:1,2008-02-15T04:00:00Z,30.1889,-90.1683,1021.7,11111222 
LUMCON,ioos:station:LUMCON:103:1,2008-02-15T05:00:00Z,30.1889,-90.1683,1021.2,11111222 
LUMCON,ioos:station:LUMCON:103:1,2008-02-15T06:00:00Z,30.1889,-90.1683,1020.7,11111222 
LUMCON,ioos:station:LUMCON:103:1,2008-02-15T07:00:00Z,30.1889,-90.1683,1020.6,11111222 
LUMCON,ioos:station:LUMCON:103:1,2008-02-15T08:00:00Z,30.1889,-90.1683,1020.4,11111222 
LUMCON,ioos:station:LUMCON:103:1,2008-02-15T09:00:00Z,30.1889,-90.1683,1020.7,11111222 
LUMCON,ioos:station:LUMCON:103:1,2008-02-15T10:00:00Z,30.1889,-90.1683,1021.3,11111222 
LUMCON,ioos:station:LUMCON:103:1,2008-02-15T11:00:00Z,30.1889,-90.1683,1021.5,11111222 
LUMCON,ioos:station:LUMCON:103:1,2008-02-15T12:00:00Z,30.1889,-90.1683,1022.0,11111222 
LUMCON,ioos:station:LUMCON:103:1,2008-02-15T13:00:00Z,30.1889,-90.1683,1022.8,11111222 
LUMCON,ioos:station:LUMCON:103:1,2008-02-15T14:00:00Z,30.1889,-90.1683,1023.4,11111222 
LUMCON,ioos:station:LUMCON:103:1,2008-02-15T15:00:00Z,30.1889,-90.1683,1023.9,11111222 
LUMCON,ioos:station:LUMCON:103:1,2008-02-15T16:00:00Z,30.1889,-90.1683,1024.2,11111222 
LUMCON,ioos:station:LUMCON:103:1,2008-02-15T17:00:00Z,30.1889,-90.1683,1023.9,11111222 
LUMCON,ioos:station:LUMCON:103:1,2008-02-15T18:00:00Z,30.1889,-90.1683,1023.2,11111222 
LUMCON,ioos:station:LUMCON:103:1,2008-02-15T19:00:00Z,30.1889,-90.1683,1022.6,11111222 
LUMCON,ioos:station:LUMCON:103:1,2008-02-15T20:00:00Z,30.1889,-90.1683,1021.9,11111222 
LUMCON,ioos:station:LUMCON:103:1,2008-02-15T21:00:00Z,30.1889,-90.1683,1021.4,11111222 
LUMCON,ioos:station:LUMCON:103:1,2008-02-15T22:00:00Z,30.1889,-90.1683,1021.5,11111222 
LUMCON,ioos:station:LUMCON:103:1,2008-02-15T23:00:00Z,30.1889,-90.1683,1021.3,11111222 
LUMCON,ioos:station:LUMCON:103:1,2008-02-16T00:00:00Z,30.1889,-90.1683,1021.5,11111222 
LUMCON,ioos:station:LUMCON:103:1,2008-02-16T01:00:00Z,30.1889,-90.1683,1021.9,11111222 
LUMCON,ioos:station:LUMCON:103:1,2008-02-16T02:00:00Z,30.1889,-90.1683,1022.2,11111222 
LUMCON,ioos:station:LUMCON:103:1,2008-02-16T03:00:00Z,30.1889,-90.1683,1022.5,11111222 
LUMCON,ioos:station:LUMCON:103:1,2008-02-16T04:00:00Z,30.1889,-90.1683,1022.1,11111222 
LUMCON,ioos:station:LUMCON:103:1,2008-02-16T05:00:00Z,30.1889,-90.1683,1021.8,11111222 
LUMCON,ioos:station:LUMCON:103:1,2008-02-16T06:00:00Z,30.1889,-90.1683,1021.7,11111222 
LUMCON,ioos:station:LUMCON:103:1,2008-02-16T07:00:00Z,30.1889,-90.1683,1020.4,11111222 
LUMCON,ioos:station:LUMCON:103:1,2008-02-16T08:00:00Z,30.1889,-90.1683,1019.1,11111222 
LUMCON,ioos:station:LUMCON:103:1,2008-02-16T09:00:00Z,30.1889,-90.1683,1019.3,11111222 
LUMCON,ioos:station:LUMCON:103:1,2008-02-16T10:00:00Z,30.1889,-90.1683,1019.3,11111222 
LUMCON,ioos:station:LUMCON:103:1,2008-02-16T11:00:00Z,30.1889,-90.1683,1019.2,11111222 
LUMCON,ioos:station:LUMCON:103:1,2008-02-16T12:00:00Z,30.1889,-90.1683,1018.7,11111222 
LUMCON,ioos:station:LUMCON:103:1,2008-02-16T13:00:00Z,30.1889,-90.1683,1018.9,11111222 
LUMCON,ioos:station:LUMCON:103:1,2008-02-16T14:00:00Z,30.1889,-90.1683,1018.8,11111222 
LUMCON,ioos:station:LUMCON:103:1,2008-02-16T15:00:00Z,30.1889,-90.1683,1019.6,11111222 
LUMCON,ioos:station:LUMCON:103:1,2008-02-16T16:00:00Z,30.1889,-90.1683,1020.0,11111222 
LUMCON,ioos:station:LUMCON:103:1,2008-02-16T17:00:00Z,30.1889,-90.1683,1019.7,11111222 
LUMCON,ioos:station:LUMCON:103:1,2008-02-16T18:00:00Z,30.1889,-90.1683,1018.8,11111222 
LUMCON,ioos:station:LUMCON:103:1,2008-02-16T19:00:00Z,30.1889,-90.1683,1017.2,11111222 
LUMCON,ioos:station:LUMCON:103:1,2008-02-16T20:00:00Z,30.1889,-90.1683,1015.8,11111222 
LUMCON,ioos:station:LUMCON:103:1,2008-02-16T21:00:00Z,30.1889,-90.1683,1014.9,11111222 
LUMCON,ioos:station:LUMCON:103:1,2008-02-16T22:00:00Z,30.1889,-90.1683,1014.1,11111222 
LUMCON,ioos:station:LUMCON:103:1,2008-02-16T23:00:00Z,30.1889,-90.1683,1013.2,11111222 
LUMCON,ioos:station:LUMCON:103:1,2008-02-17T00:00:00Z,30.1889,-90.1683,1012.5,11111222 
LUMCON,ioos:station:LUMCON:103:1,2008-02-17T01:00:00Z,30.1889,-90.1683,1011.8,11111222 
LUMCON,ioos:station:LUMCON:103:1,2008-02-17T02:00:00Z,30.1889,-90.1683,1010.8,11111222 
LUMCON,ioos:station:LUMCON:103:1,2008-02-17T03:00:00Z,30.1889,-90.1683,1009.8,11111222 
LUMCON,ioos:station:LUMCON:103:1,2008-02-17T04:00:00Z,30.1889,-90.1683,1008.5,11111222 
LUMCON,ioos:station:LUMCON:103:1,2008-02-17T05:00:00Z,30.1889,-90.1683,1007.7,11111222 
LUMCON,ioos:station:LUMCON:103:1,2008-02-17T06:00:00Z,30.1889,-90.1683,1008.0,11111222 
LUMCON,ioos:station:LUMCON:103:1,2008-02-17T07:00:00Z,30.1889,-90.1683,1007.6,11111222 
LUMCON,ioos:station:LUMCON:103:1,2008-02-17T08:00:00Z,30.1889,-90.1683,1008.9,11111222 
LUMCON,ioos:station:LUMCON:103:1,2008-02-17T09:00:00Z,30.1889,-90.1683,1008.8,11111222 
LUMCON,ioos:station:LUMCON:103:1,2008-02-17T10:00:00Z,30.1889,-90.1683,1008.2,11111222 
LUMCON,ioos:station:LUMCON:103:1,2008-02-17T11:00:00Z,30.1889,-90.1683,1008.2,11111222 
LUMCON,ioos:station:LUMCON:103:1,2008-02-17T12:00:00Z,30.1889,-90.1683,1008.8,11111222 
LUMCON,ioos:station:LUMCON:103:1,2008-02-17T13:00:00Z,30.1889,-90.1683,1008.6,11111222 
LUMCON,ioos:station:LUMCON:103:1,2008-02-17T14:00:00Z,30.1889,-90.1683,1008.5,11111222 
LUMCON,ioos:station:LUMCON:103:1,2008-02-17T15:00:00Z,30.1889,-90.1683,1008.5,11111222 
LUMCON,ioos:station:LUMCON:103:1,2008-02-17T16:00:00Z,30.1889,-90.1683,1009.1,11111222 
LUMCON,ioos:station:LUMCON:103:1,2008-02-17T17:00:00Z,30.1889,-90.1683,1008.8,11111222 
LUMCON,ioos:station:LUMCON:103:1,2008-02-17T18:00:00Z,30.1889,-90.1683,1007.6,11111222 
LUMCON,ioos:station:LUMCON:103:1,2008-02-17T19:00:00Z,30.1889,-90.1683,1006.8,11111222 
LUMCON,ioos:station:LUMCON:103:1,2008-02-17T20:00:00Z,30.1889,-90.1683,1006.4,11111222 
LUMCON,ioos:station:LUMCON:103:1,2008-02-17T21:00:00Z,30.1889,-90.1683,1006.2,11111222 
LUMCON,ioos:station:LUMCON:103:1,2008-02-17T22:00:00Z,30.1889,-90.1683,1006.1,11111222 
LUMCON,ioos:station:LUMCON:103:1,2008-02-17T23:00:00Z,30.1889,-90.1683,1006.5,11111222 
LUMCON,ioos:station:LUMCON:103:1,2008-02-18T00:00:00Z,30.1889,-90.1683,1007.0,11111222 
LUMCON,ioos:station:LUMCON:103:1,2008-02-18T01:00:00Z,30.1889,-90.1683,1007.3,11111222 
LUMCON,ioos:station:LUMCON:103:1,2008-02-18T02:00:00Z,30.1889,-90.1683,1008.0,11111222 
LUMCON,ioos:station:LUMCON:103:1,2008-02-18T03:00:00Z,30.1889,-90.1683,1008.6,11111222 
LUMCON,ioos:station:LUMCON:103:1,2008-02-18T04:00:00Z,30.1889,-90.1683,1009.2,11111222 
LUMCON,ioos:station:LUMCON:103:1,2008-02-18T05:00:00Z,30.1889,-90.1683,1010.1,11111222 
LUMCON,ioos:station:LUMCON:103:1,2008-02-18T06:00:00Z,30.1889,-90.1683,1010.8,11111222 
LUMCON,ioos:station:LUMCON:103:1,2008-02-18T07:00:00Z,30.1889,-90.1683,1011.4,11111222 
LUMCON,ioos:station:LUMCON:103:1,2008-02-18T08:00:00Z,30.1889,-90.1683,1012.3,11111222 
LUMCON,ioos:station:LUMCON:103:1,2008-02-18T09:00:00Z,30.1889,-90.1683,1012.9,11111222 
LUMCON,ioos:station:LUMCON:103:1,2008-02-18T10:00:00Z,30.1889,-90.1683,1013.4,11111222 
LUMCON,ioos:station:LUMCON:103:1,2008-02-18T11:00:00Z,30.1889,-90.1683,1014.4,11111222 
LUMCON,ioos:station:LUMCON:103:1,2008-02-18T12:00:00Z,30.1889,-90.1683,1015.4,11111222 
LUMCON,ioos:station:LUMCON:103:1,2008-02-18T13:00:00Z,30.1889,-90.1683,1016.6,11111222 
LUMCON,ioos:station:LUMCON:103:1,2008-02-18T14:00:00Z,30.1889,-90.1683,1017.7,11111222 
LUMCON,ioos:station:LUMCON:103:1,2008-02-18T15:00:00Z,30.1889,-90.1683,1018.5,11111222 
LUMCON,ioos:station:LUMCON:103:1,2008-02-18T16:00:00Z,30.1889,-90.1683,1019.0,11111222 
LUMCON,ioos:station:LUMCON:103:1,2008-02-18T17:00:00Z,30.1889,-90.1683,1019.2,11111222 
LUMCON,ioos:station:LUMCON:103:1,2008-02-18T18:00:00Z,30.1889,-90.1683,1018.9,11111222 
LUMCON,ioos:station:LUMCON:103:1,2008-02-18T19:00:00Z,30.1889,-90.1683,1018.3,11111222 
LUMCON,ioos:station:LUMCON:103:1,2008-02-18T20:00:00Z,30.1889,-90.1683,1017.6,11111222 
LUMCON,ioos:station:LUMCON:103:1,2008-02-18T21:00:00Z,30.1889,-90.1683,1017.6,11111222 
LUMCON,ioos:station:LUMCON:103:1,2008-02-18T22:00:00Z,30.1889,-90.1683,1017.8,11111222 
LUMCON,ioos:station:LUMCON:103:1,2008-02-18T23:00:00Z,30.1889,-90.1683,1018.2,11111222 
LUMCON,ioos:station:LUMCON:103:1,2008-02-19T00:00:00Z,30.1889,-90.1683,1019.2,11111222 
LUMCON,ioos:station:LUMCON:103:1,2008-02-19T01:00:00Z,30.1889,-90.1683,1020.0,11111222 
LUMCON,ioos:station:LUMCON:103:1,2008-02-19T02:00:00Z,30.1889,-90.1683,1021.1,11111222 
LUMCON,ioos:station:LUMCON:103:1,2008-02-19T03:00:00Z,30.1889,-90.1683,1021.5,11111222 
LUMCON,ioos:station:LUMCON:103:1,2008-02-19T04:00:00Z,30.1889,-90.1683,1021.8,11111222 
LUMCON,ioos:station:LUMCON:103:1,2008-02-19T05:00:00Z,30.1889,-90.1683,1022.2,11111222 
LUMCON,ioos:station:LUMCON:103:1,2008-02-19T06:00:00Z,30.1889,-90.1683,1022.5,11111222 
LUMCON,ioos:station:LUMCON:103:1,2008-02-19T07:00:00Z,30.1889,-90.1683,1023.2,11111222 
LUMCON,ioos:station:LUMCON:103:1,2008-02-19T08:00:00Z,30.1889,-90.1683,1023.7,11111222 
LUMCON,ioos:station:LUMCON:103:1,2008-02-19T09:00:00Z,30.1889,-90.1683,1024.1,11111222 
LUMCON,ioos:station:LUMCON:103:1,2008-02-19T10:00:00Z,30.1889,-90.1683,1024.4,11111222 
LUMCON,ioos:station:LUMCON:103:1,2008-02-19T11:00:00Z,30.1889,-90.1683,1024.9,11111222 
LUMCON,ioos:station:LUMCON:103:1,2008-02-19T12:00:00Z,30.1889,-90.1683,1025.0,11111222 
LUMCON,ioos:station:LUMCON:103:1,2008-02-19T13:00:00Z,30.1889,-90.1683,1025.4,11111222 
LUMCON,ioos:station:LUMCON:103:1,2008-02-19T14:00:00Z,30.1889,-90.1683,1025.7,11111222 
LUMCON,ioos:station:LUMCON:103:1,2008-02-19T15:00:00Z,30.1889,-90.1683,1026.5,11111222 
LUMCON,ioos:station:LUMCON:103:1,2008-02-19T16:00:00Z,30.1889,-90.1683,1026.9,11111222 
LUMCON,ioos:station:LUMCON:103:1,2008-02-19T17:00:00Z,30.1889,-90.1683,1027.4,11111222 
LUMCON,ioos:station:LUMCON:103:1,2008-02-19T18:00:00Z,30.1889,-90.1683,1026.8,11111222 
LUMCON,ioos:station:LUMCON:103:1,2008-02-19T19:00:00Z,30.1889,-90.1683,1025.7,11111222 
LUMCON,ioos:station:LUMCON:103:1,2008-02-19T20:00:00Z,30.1889,-90.1683,1024.5,11111222 
LUMCON,ioos:station:LUMCON:103:1,2008-02-19T21:00:00Z,30.1889,-90.1683,1023.5,11111222 
LUMCON,ioos:station:LUMCON:103:1,2008-02-19T22:00:00Z,30.1889,-90.1683,1023.1,11111222 
LUMCON,ioos:station:LUMCON:103:1,2008-02-19T23:00:00Z,30.1889,-90.1683,1023.3,11111222 
LUMCON,ioos:station:LUMCON:103:1,2008-02-20T00:00:00Z,30.1889,-90.1683,1023.1,11111222 
LUMCON,ioos:station:LUMCON:103:1,2008-02-20T01:00:00Z,30.1889,-90.1683,1023.3,11111222 
LUMCON,ioos:station:LUMCON:103:1,2008-02-20T02:00:00Z,30.1889,-90.1683,1023.2,11111222 
LUMCON,ioos:station:LUMCON:103:1,2008-02-20T03:00:00Z,30.1889,-90.1683,1023.2,11111222 
LUMCON,ioos:station:LUMCON:103:1,2008-02-20T04:00:00Z,30.1889,-90.1683,1023.1,11111222 
LUMCON,ioos:station:LUMCON:103:1,2008-02-20T05:00:00Z,30.1889,-90.1683,1022.7,11111222 
LUMCON,ioos:station:LUMCON:103:1,2008-02-20T06:00:00Z,30.1889,-90.1683,1022.1,11111222 
LUMCON,ioos:station:LUMCON:103:1,2008-02-20T07:00:00Z,30.1889,-90.1683,1021.9,11111222 
LUMCON,ioos:station:LUMCON:103:1,2008-02-20T08:00:00Z,30.1889,-90.1683,1021.4,11111222 
LUMCON,ioos:station:LUMCON:103:1,2008-02-20T09:00:00Z,30.1889,-90.1683,1021.0,11111222 
LUMCON,ioos:station:LUMCON:103:1,2008-02-20T10:00:00Z,30.1889,-90.1683,1020.6,11111222 
LUMCON,ioos:station:LUMCON:103:1,2008-02-20T11:00:00Z,30.1889,-90.1683,1020.7,11111222 
LUMCON,ioos:station:LUMCON:103:1,2008-02-20T12:00:00Z,30.1889,-90.1683,1021.0,11111222 
LUMCON,ioos:station:LUMCON:103:1,2008-02-20T13:00:00Z,30.1889,-90.1683,1021.2,11111222 
LUMCON,ioos:station:LUMCON:103:1,2008-02-20T14:00:00Z,30.1889,-90.1683,1021.2,11111222 
LUMCON,ioos:station:LUMCON:103:1,2008-02-20T15:00:00Z,30.1889,-90.1683,1021.5,11111222 
LUMCON,ioos:station:LUMCON:103:1,2008-02-20T16:00:00Z,30.1889,-90.1683,1021.7,11111222 
LUMCON,ioos:station:LUMCON:103:1,2008-02-20T17:00:00Z,30.1889,-90.1683,1021.3,11111222 
LUMCON,ioos:station:LUMCON:103:1,2008-02-20T18:00:00Z,30.1889,-90.1683,1020.3,11111222 
LUMCON,ioos:station:LUMCON:103:1,2008-02-20T19:00:00Z,30.1889,-90.1683,1019.4,11111222 
LUMCON,ioos:station:LUMCON:103:1,2008-02-20T20:00:00Z,30.1889,-90.1683,1018.3,11111222 
LUMCON,ioos:station:LUMCON:103:1,2008-02-20T21:00:00Z,30.1889,-90.1683,1017.7,11111222 
LUMCON,ioos:station:LUMCON:103:1,2008-02-20T22:00:00Z,30.1889,-90.1683,1017.3,11111222 
LUMCON,ioos:station:LUMCON:103:1,2008-02-20T23:00:00Z,30.1889,-90.1683,1017.1,11111222 
LUMCON,ioos:station:LUMCON:103:1,2008-02-21T00:00:00Z,30.1889,-90.1683,1017.0,11111222 
LUMCON,ioos:station:LUMCON:103:1,2008-02-21T01:00:00Z,30.1889,-90.1683,1016.8,11111222 
LUMCON,ioos:station:LUMCON:103:1,2008-02-21T02:00:00Z,30.1889,-90.1683,1017.0,11111222 
LUMCON,ioos:station:LUMCON:103:1,2008-02-21T03:00:00Z,30.1889,-90.1683,1017.2,11111222 
LUMCON,ioos:station:LUMCON:103:1,2008-02-21T04:00:00Z,30.1889,-90.1683,1016.9,11111222 
LUMCON,ioos:station:LUMCON:103:1,2008-02-21T05:00:00Z,30.1889,-90.1683,1016.6,11111222 
LUMCON,ioos:station:LUMCON:103:1,2008-02-21T06:00:00Z,30.1889,-90.1683,1016.0,11111222 
LUMCON,ioos:station:LUMCON:103:1,2008-02-21T07:00:00Z,30.1889,-90.1683,1014.9,11111222 
LUMCON,ioos:station:LUMCON:103:1,2008-02-21T08:00:00Z,30.1889,-90.1683,1014.2,11111222 
LUMCON,ioos:station:LUMCON:103:1,2008-02-21T09:00:00Z,30.1889,-90.1683,1013.1,11111222 
LUMCON,ioos:station:LUMCON:103:1,2008-02-21T10:00:00Z,30.1889,-90.1683,1013.1,11111222 
LUMCON,ioos:station:LUMCON:103:1,2008-02-21T11:00:00Z,30.1889,-90.1683,1012.6,11111222 
LUMCON,ioos:station:LUMCON:103:1,2008-02-21T12:00:00Z,30.1889,-90.1683,1012.0,11111222 
LUMCON,ioos:station:LUMCON:103:1,2008-02-21T13:00:00Z,30.1889,-90.1683,1012.4,11111222 
LUMCON,ioos:station:LUMCON:103:1,2008-02-21T14:00:00Z,30.1889,-90.1683,1012.8,11111222 
LUMCON,ioos:station:LUMCON:103:1,2008-02-21T15:00:00Z,30.1889,-90.1683,1012.3,11111222 
LUMCON,ioos:station:LUMCON:103:1,2008-02-21T16:00:00Z,30.1889,-90.1683,1012.5,11111222 
LUMCON,ioos:station:LUMCON:103:1,2008-02-21T17:00:00Z,30.1889,-90.1683,1012.6,11111222 
LUMCON,ioos:station:LUMCON:103:1,2008-02-21T18:00:00Z,30.1889,-90.1683,1012.1,11111222 
LUMCON,ioos:station:LUMCON:103:1,2008-02-21T19:00:00Z,30.1889,-90.1683,1011.3,11111222 
LUMCON,ioos:station:LUMCON:103:1,2008-02-21T20:00:00Z,30.1889,-90.1683,1010.7,11111222 
LUMCON,ioos:station:LUMCON:103:1,2008-02-21T21:00:00Z,30.1889,-90.1683,1010.1,11111222 
LUMCON,ioos:station:LUMCON:103:1,2008-02-21T22:00:00Z,30.1889,-90.1683,1010.2,11111222 
LUMCON,ioos:station:LUMCON:103:1,2008-02-21T23:00:00Z,30.1889,-90.1683,1010.4,11111222 
LUMCON,ioos:station:LUMCON:103:1,2008-02-22T00:00:00Z,30.1889,-90.1683,1010.0,11111222 
LUMCON,ioos:station:LUMCON:103:1,2008-02-22T01:00:00Z,30.1889,-90.1683,1009.9,11111222 
LUMCON,ioos:station:LUMCON:103:1,2008-02-22T02:00:00Z,30.1889,-90.1683,1009.7,11111222 
LUMCON,ioos:station:LUMCON:103:1,2008-02-25T17:00:00Z,30.1889,-90.1683,1016.2,11111222 
LUMCON,ioos:station:LUMCON:103:1,2008-02-25T18:00:00Z,30.1889,-90.1683,1015.1,11111222 
LUMCON,ioos:station:LUMCON:103:1,2008-02-25T19:00:00Z,30.1889,-90.1683,1014.0,11111222 
LUMCON,ioos:station:LUMCON:103:1,2008-02-25T20:00:00Z,30.1889,-90.1683,1012.8,11111222 
LUMCON,ioos:station:LUMCON:103:1,2008-02-25T21:00:00Z,30.1889,-90.1683,1012.0,11111222 
LUMCON,ioos:station:LUMCON:103:1,2008-02-25T22:00:00Z,30.1889,-90.1683,1011.2,11111222 
LUMCON,ioos:station:LUMCON:103:1,2008-02-25T23:00:00Z,30.1889,-90.1683,1010.5,11111222 
LUMCON,ioos:station:LUMCON:103:1,2008-02-26T00:00:00Z,30.1889,-90.1683,1010.1,11111222 
LUMCON,ioos:station:LUMCON:103:1,2008-02-26T01:00:00Z,30.1889,-90.1683,1009.6,11111222 
LUMCON,ioos:station:LUMCON:103:1,2008-02-26T02:00:00Z,30.1889,-90.1683,1009.5,11111222 
LUMCON,ioos:station:LUMCON:103:1,2008-02-26T03:00:00Z,30.1889,-90.1683,1009.0,11111222 
LUMCON,ioos:station:LUMCON:103:1,2008-02-26T04:00:00Z,30.1889,-90.1683,1009.0,11111222 
LUMCON,ioos:station:LUMCON:103:1,2008-02-26T05:00:00Z,30.1889,-90.1683,1008.8,11111222 
LUMCON,ioos:station:LUMCON:103:1,2008-02-26T06:00:00Z,30.1889,-90.1683,1008.1,11111222 
LUMCON,ioos:station:LUMCON:103:1,2008-02-26T07:00:00Z,30.1889,-90.1683,1008.0,11111222 
LUMCON,ioos:station:LUMCON:103:1,2008-02-26T08:00:00Z,30.1889,-90.1683,1008.0,11111222 
LUMCON,ioos:station:LUMCON:103:1,2008-02-26T09:00:00Z,30.1889,-90.1683,1007.3,11111222 
LUMCON,ioos:station:LUMCON:103:1,2008-02-26T10:00:00Z,30.1889,-90.1683,1007.0,11111222 
LUMCON,ioos:station:LUMCON:103:1,2008-02-26T11:00:00Z,30.1889,-90.1683,1006.8,11111222 
LUMCON,ioos:station:LUMCON:103:1,2008-02-26T12:00:00Z,30.1889,-90.1683,1007.8,11111222 
LUMCON,ioos:station:LUMCON:103:1,2008-02-26T13:00:00Z,30.1889,-90.1683,1008.6,11111222 